Regional Weather Roundup
Issued by NWS Little Rock, AR

Home | Current Version | Previous Version | Graphics & Text | Print | Product List | Glossary On
Versions: 1 2 3 4 5 6 7 8 9 10 11 12 13 14 15 16 17 18 19 20 21 22 23 24 25 26 27 28 29 30 31 32
000
ASUS44 KLZK 200805
RWRLZK

WEATHER ROUNDUP FOR ARKANSAS
NATIONAL WEATHER SERVICE LITTLE ROCK AR
300 AM CDT WED SEP 20 2017

NOTE: "FAIR" INDICATES FEW OR NO CLOUDS BELOW 12,000 FEET WITH NO
SIGNIFICANT WEATHER AND/OR OBSTRUCTIONS TO VISIBILITY.

ARZ001-003-010-029-200900-
NORTHWEST ARKANSAS

CITY           SKY/WX    TMP DP  RH WIND       PRES   REMARKS
FAYETTEVILLE   CLEAR     73  71  93 S3        29.87F
FORT SMITH     CLEAR     75  72  90 E6        29.84F
HARRISON       CLEAR     75  70  84 S9        29.89F
BENTONVILLE    CLEAR     74  70  87 S12       29.87F
ROGERS         CLEAR     73  70  90 SE8       29.87F
SILOAM SPGS    CLEAR     75  70  84 S10       29.86S
HIGHFILL       PTCLDY    74  71  91 S12       29.86F
$$

ARZ004-005-016-200900-
NORTH CENTRAL ARKANSAS

CITY           SKY/WX    TMP DP  RH WIND       PRES   REMARKS
BATESVILLE     CLEAR    N/A N/A N/A VRB3      29.90F
FLIPPIN        CLEAR     74  70  87 E3        29.88S
MTN HOME       CLEAR     72  70  93 S3        29.88S
$$

ARZ040-041-200900-
WEST CENTRAL ARKANSAS

CITY           SKY/WX    TMP DP  RH WIND       PRES   REMARKS
MENA           CLOUDY    79  79 100 S5        29.89F
MOUNT IDA      CLOUDY    79  71  76 SW5       29.88S
$$

ARZ009-017-025-026-028-200900-
NORTHEAST ARKANSAS

CITY           SKY/WX    TMP DP  RH WIND       PRES   REMARKS
CORNING        FAIR      73  73 100 S6        29.89F
JONESBORO      CLEAR     72  72 100 CALM      29.90F
NEWPORT        CLEAR     71  70  96 S5        29.90F
BLYTHEVILLE    CLEAR     73  71  93 S5        29.92S
$$

ARZ022-023-033-042-044-200900-
CENTRAL ARKANSAS

CITY           SKY/WX    TMP DP  RH WIND       PRES   REMARKS
LITTLE ROCK    CLOUDY    72  72 100 CALM      29.90F
N LITTLE ROCK    N/A     76  72  87 CALM      29.90F
JACKSONVILLE   PTCLDY    72  72 100 CALM      29.90S
CONWAY           N/A     77  73  88 S5        29.87F
SEARCY         CLEAR     72  72 100 S3        29.91F
HOT SPRINGS    CLOUDY    77  74  90 E3        29.90F
RUSSELLVILLE   CLOUDY    73  71  93 CALM      29.88S
CLINTON        FAIR      70  68  94 CALM      29.89F FOG
$$

ARZ036-200900-
EAST ARKANSAS

CITY           SKY/WX    TMP DP  RH WIND       PRES   REMARKS
WEST MEMPHIS   CLEAR     73  73 100 S5        29.91S
$$

ARZ050-053-066-070-073-200900-
SOUTHWEST ARKANSAS

CITY           SKY/WX    TMP DP  RH WIND       PRES   REMARKS
ARKADELPHIA    FAIR      70  70 100 CALM      29.89F
CAMDEN         CLEAR     73  72  94 CALM      29.89F FOG
TEXARKANA      CLOUDY    76  74  93 S7        29.88F
EL DORADO      PTCLDY    75  73  93 S6        29.91F
DE QUEEN       MOCLDY    77  75  93 VRB5      29.85F
$$

ARZ056-057-069-200900-
SOUTHEAST ARKANSAS

CITY           SKY/WX    TMP DP  RH WIND       PRES   REMARKS
PINE BLUFF     PTCLDY    72  70  93 S3        29.91F
STUTTGART      PTCLDY    75  72  90 S7        29.91F
MONTICELLO     CLEAR     76  70  82 S7        29.92F

$$






USA.gov is the U.S. government's official web portal to all federal, state and local government web resources and services.